Lexington Weather

Lexington, Massachusetts, USA

54°F
5/18/2024 12:12am 
  • Lexington Conditions: Clear
  • Temperature: 54.3°F / 12.4°CColder 1.5°F than last hour.
  • Dew Point: 49.8°FDecreased 0.9°Fsince last hour.
  • Relative Humidity: 85%Increased 2.0% since last hour.
  • Wind: Calm, 10-min avg: Calm, gust: None
  • Barometer: 29.96 in Steady
  • Visibility: 10 miles
  • Rain Today: 0.00 in
  •   

Regional Weather Roundup
for Boston, MA

        
000
ASUS41 KBOX 171510
RWRBOX

REGIONAL WEATHER ROUNDUP
NATIONAL WEATHER SERVICE BOSTON/NORTON MA
1100 AM EDT FRI MAY 17 2024

NOTE:  "FAIR" INDICATES FEW OR NO CLOUDS BELOW 12,000 FEET WITH NO 
SIGNIFICANT WEATHER AND/OR OBSTRUCTIONS TO VISIBILITY.

MAZALL-171600-
EASTERN MASSACHUSETTS
  
CITY           SKY/WX    TMP DP  RH WIND       PRES   REMARKS
BOSTON         PTSUNNY   64  52  64 E10       29.98F                  
BEVERLY        MOSUNNY   66  52  60 E10G20    29.98F                  
LAWRENCE       MOSUNNY   68  53  58 NE13G18   30.00F                  
BEDFORD        MOSUNNY   68  53  58 E12       29.97F                  
NORWOOD        MOSUNNY   68  51  54 NE8G18    29.98F                  
MARSHFIELD     MOSUNNY   59  48  67 NE8G15    29.98F                  
PLYMOUTH       MOSUNNY   64  50  60 NE14G23   29.96F                  
TAUNTON        MOSUNNY   69  52  54 NE9       29.95F                  
NEW BEDFORD    MOSUNNY   67  55  65 NE13G26   29.94F                  
$$

MAZALL-171600-
CAPE COD AND THE ISLANDS
  
CITY           SKY/WX    TMP DP  RH WIND       PRES   REMARKS
FALMOUTH       MOSUNNY   63  54  72 NE20G29   29.94F                  
HYANNIS        MOSUNNY   62  54  74 NE15G26   29.92F                  
CHATHAM        MOSUNNY   59  52  77 NE15G24   29.95S                  
PROVINCETOWN   SUNNY     58  53  84 NE14      29.98F                  
NANTUCKET      LGT RAIN  57  55  93 N22G30    29.92R                  
MARTHAS VNYRD  MOSUNNY   65  58  78 NE22G30   29.91F                  
$$
 
MAZALL-171600-
CENTRAL AND WESTERN MASSACHUSETTS
  
CITY           SKY/WX    TMP DP  RH WIND       PRES   REMARKS
WORCESTER      MOSUNNY   66  50  56 NE12G20   29.99F                  
FITCHBURG      MOSUNNY   69  53  56 VRB5      30.00F                  
ORANGE         MOSUNNY   70  53  54 E9        29.99F                  
SPRINGFIELD    PTSUNNY   72  53  52 E9        29.93F                  
WESTFIELD      MOSUNNY   70  54  56 N8        29.96F                  
NORTH ADAMS    PTSUNNY   70  52  52 E13G21    29.97F                  
PITTSFIELD     PTSUNNY   67  51  56 VRB6      29.97F                  
$$
 
RIZALL-171600-
RHODE ISLAND
  
CITY           SKY/WX    TMP DP  RH WIND       PRES   REMARKS
PROVIDENCE     PTSUNNY   67  54  63 NE17G25   29.96F                  
NEWPORT        MOSUNNY   65  53  65 NE20G26   29.94F                  
BLOCK ISLAND   MOSUNNY   59  53  80 NE15G24   29.93F                  
SMITHFIELD     MOSUNNY   67  55  65 NE10G17   29.97F                  
WESTERLY       PTSUNNY   68  52  56 NE16G31   29.92F                  
$$
 
CTZALL-171600-
CONNECTICUT
  
CITY           SKY/WX    TMP DP  RH WIND       PRES   REMARKS
BRADLEY INTL   PTSUNNY   71  55  56 N9        29.95F                  
HARTFORD       MOSUNNY   69  56  62 N6        29.94F                  
PLAINVILLE     FAIR      67  55  63 N7        29.95F                  
BRIDGEPORT     PTSUNNY   68  51  54 NE9       29.95S                  
DANBURY        MOSUNNY   68  53  58 E8        29.98R                  
GROTON         PTSUNNY   71  54  54 NE18G28   29.91F                  
NEW HAVEN      PTSUNNY   71  55  56 NE12      29.93                   
CHESTER        MOSUNNY   70  52  52 NE18G24   29.93F                  
MERIDEN        CLOUDY    69  53  56 VRB3      29.95F                  
WILLIMANTIC    MOSUNNY   68  53  58 NE17      29.95F                  
OXFORD         PTSUNNY   65  52  62 NE13G20   29.97F                  
$$

MEZ002-015-021-024-NHZ003-005-008-011-012-014-VTZ005-008-171600-
NORTHERN NEW ENGLAND
  
CITY           SKY/WX    TMP DP  RH WIND       PRES   REMARKS
PORTLAND ME    PTSUNNY   63  54  72 E9        30.03F                  
BANGOR ME      MOSUNNY   71  57  61 VRB3      30.04F                  
CONCORD NH     PTSUNNY   73  53  49 VRB5      30.00F                  
MANCHESTER NH  PTSUNNY   71  53  52 VRB3      29.98F                  
NASHUA NH      MOSUNNY   70  54  56 E9        30.00F                  
PORTSMOUTH NH  PTSUNNY   70  51  52 E8        29.99F                  
JAFFREY NH     PTSUNNY   68  52  56 MISG      30.00F                  
KEENE NH       PTSUNNY   68  52  56 NE8       29.99F                  
BURLINGTON VT  PTSUNNY   72  49  44 CALM      29.99F                  
MT. WASHINGTON CLOUDY    45  43  93 E16G23      N/A                   
$$

NYZ052-076-171600-
EASTERN NEW YORK
  
CITY           SKY/WX    TMP DP  RH WIND       PRES   REMARKS
ALBANY         PTSUNNY   70  53  54 NW6       30.00S                  
NEW YORK CITY  CLOUDY    64  51  62 NE8       29.96R                  
$$
 
ANZALL-171600-
MARINE OBSERVATIONS
  
STATION/POSITION TIME  TEMP    WIND        PRES    VSBY  WAVE
                       AIR SEA DIR/SP/G                  HT/PER
                 (UTC) (F)     (DEG/KT/KT) (MB)    (MI)  (FT/S)
BOSTON BUOY      1450   53 53   20/ 10/ 14 1015.9F         3/ 9
BUZZARDS BAY     1400   56      40/ 15/ 16 1014.1F
NANTUCKET SOUND  1450   59 55   20/ 14/ 17 1012.8F         2/ 3
MASS BAY-STELLWA 1304   54 52   20/ 10/ 12 1016.4F  1 7/8  4/ 8
ISLE OF SHOALS   1400   56      30/ 13/ 14 1015.8F
S OF BLOCK IS    1456      49                N/A           6/ 8
$$

......................KEY.........................
  SKY/WX - SKY CONDITION/PRESENT WEATHER
  TMP    - TEMPERATURE IN FAHRENHEIT
  DWPT   - DEWPOINT IN FAHRENHEIT
  RH     - RELATIVE HUMIDITY IN PERCENT
  WIND   - DIRECTION AND SPEED IN MPH
  PRES   - MEAN SEA LEVEL PRESSURE IN INCHES OF HG
  WCI    - WIND CHILL INDEX
  VSB    - VISIBILITY IN MILES
  HX     - HEAT INDEX
  TC     - TEMPERATURE IN CELSIUS
  VRB    - VARIABLE WIND DIRECTION
  N/A    - NOT AVAILABLE
  
      

Other recent Regional Weather Roundups

Fri May 17, 11:10pm EDT

Fri May 17, 10:10pm EDT

Fri May 17, 9:10pm EDT

Fri May 17, 8:10pm EDT

Fri May 17, 7:10pm EDT

Fri May 17, 6:10pm EDT

Fri May 17, 5:10pm EDT

Fri May 17, 4:10pm EDT

Fri May 17, 3:10pm EDT

Fri May 17, 2:10pm EDT

Fri May 17, 1:10pm EDT

Fri May 17, 12:10pm EDT

Fri May 17, 10:10am EDT

Fri May 17, 9:10am EDT

Fri May 17, 8:10am EDT

Fri May 17, 7:10am EDT

Fri May 17, 6:10am EDT

Fri May 17, 5:10am EDT

Fri May 17, 4:10am EDT

Fri May 17, 3:10am EDT

Fri May 17, 2:10am EDT

Fri May 17, 1:10am EDT

Fri May 17, 12:10am EDT

Thu May 16, 11:10pm EDT

Thu May 16, 10:10pm EDT

Thu May 16, 9:10pm EDT

Thu May 16, 8:10pm EDT

Thu May 16, 7:10pm EDT

Thu May 16, 6:10pm EDT

Thu May 16, 5:10pm EDT

Thu May 16, 4:10pm EDT

Thu May 16, 3:10pm EDT

Thu May 16, 2:10pm EDT

Thu May 16, 1:10pm EDT

Thu May 16, 12:10pm EDT

Thu May 16, 11:10am EDT

Thu May 16, 10:10am EDT

Thu May 16, 9:10am EDT

Thu May 16, 8:10am EDT

Thu May 16, 7:10am EDT

Thu May 16, 6:10am EDT

Thu May 16, 5:10am EDT

Thu May 16, 4:10am EDT

Thu May 16, 3:10am EDT

Thu May 16, 2:10am EDT

Thu May 16, 1:10am EDT

Thu May 16, 12:10am EDT

Wed May 15, 11:10pm EDT

Wed May 15, 10:10pm EDT

Wed May 15, 9:10pm EDT

Wed May 15, 8:10pm EDT

Wed May 15, 7:10pm EDT

Wed May 15, 6:10pm EDT

Wed May 15, 5:10pm EDT

Wed May 15, 4:10pm EDT

Wed May 15, 3:10pm EDT

Wed May 15, 2:10pm EDT

Wed May 15, 1:10pm EDT

Wed May 15, 12:10pm EDT

Wed May 15, 11:10am EDT

Wed May 15, 10:10am EDT

Wed May 15, 9:10am EDT

Wed May 15, 8:10am EDT

Wed May 15, 7:10am EDT

Wed May 15, 6:10am EDT

Wed May 15, 5:10am EDT

Wed May 15, 4:10am EDT

Wed May 15, 3:10am EDT

Wed May 15, 2:10am EDT

Wed May 15, 1:10am EDT

Wed May 15, 12:10am EDT

Tue May 14, 11:10pm EDT

Tue May 14, 10:10pm EDT

Tue May 14, 9:10pm EDT

Tue May 14, 8:10pm EDT

Tue May 14, 7:10pm EDT

Tue May 14, 6:10pm EDT

Tue May 14, 5:10pm EDT

Tue May 14, 4:10pm EDT

Tue May 14, 3:10pm EDT

Tue May 14, 2:10pm EDT

Tue May 14, 1:10pm EDT

Tue May 14, 12:10pm EDT

Tue May 14, 11:10am EDT

Tue May 14, 10:10am EDT

Tue May 14, 9:10am EDT

Tue May 14, 8:10am EDT

Tue May 14, 7:10am EDT

Tue May 14, 6:10am EDT

Tue May 14, 5:10am EDT

Tue May 14, 4:10am EDT

Tue May 14, 3:10am EDT

Tue May 14, 2:10am EDT

Tue May 14, 1:10am EDT

Tue May 14, 12:10am EDT

Mon May 13, 11:10pm EDT

Mon May 13, 10:10pm EDT

Mon May 13, 9:10pm EDT

Mon May 13, 8:10pm EDT

Mon May 13, 7:10pm EDT

Mon May 13, 6:10pm EDT

Mon May 13, 5:10pm EDT

Mon May 13, 4:10pm EDT

Mon May 13, 3:10pm EDT

Mon May 13, 2:10pm EDT

Mon May 13, 1:10pm EDT

Mon May 13, 12:10pm EDT

Mon May 13, 11:10am EDT

Mon May 13, 10:10am EDT

Mon May 13, 9:10am EDT

Mon May 13, 8:10am EDT

Mon May 13, 7:10am EDT

Mon May 13, 6:10am EDT

Mon May 13, 5:10am EDT

Mon May 13, 4:10am EDT

Mon May 13, 3:10am EDT

Mon May 13, 2:10am EDT

Mon May 13, 1:10am EDT

Mon May 13, 12:10am EDT

Sun May 12, 11:10pm EDT

Sun May 12, 10:10pm EDT

Sun May 12, 9:10pm EDT

Sun May 12, 8:10pm EDT

Sun May 12, 7:10pm EDT

Sun May 12, 6:10pm EDT

Sun May 12, 5:10pm EDT

Sun May 12, 4:10pm EDT

Sun May 12, 3:10pm EDT

Sun May 12, 2:10pm EDT

Sun May 12, 1:10pm EDT

Sun May 12, 12:10pm EDT

Sun May 12, 11:10am EDT

Sun May 12, 10:10am EDT

Sun May 12, 9:10am EDT

Sun May 12, 8:10am EDT

Sun May 12, 7:10am EDT

Sun May 12, 6:10am EDT

Sun May 12, 5:10am EDT

Sun May 12, 4:10am EDT

Sun May 12, 3:10am EDT

Sun May 12, 2:10am EDT

Sun May 12, 1:10am EDT

Sun May 12, 12:10am EDT

Sat May 11, 11:10pm EDT

Sat May 11, 10:10pm EDT

Sat May 11, 9:10pm EDT

Sat May 11, 8:10pm EDT

Sat May 11, 7:10pm EDT

Sat May 11, 6:10pm EDT

Sat May 11, 5:10pm EDT

Sat May 11, 4:10pm EDT

Sat May 11, 3:10pm EDT

Sat May 11, 2:10pm EDT

Sat May 11, 1:10pm EDT

Sat May 11, 12:10pm EDT

Sat May 11, 11:10am EDT

Sat May 11, 10:10am EDT

Sat May 11, 9:10am EDT

Sat May 11, 8:10am EDT

Sat May 11, 7:10am EDT

Sat May 11, 6:10am EDT

Sat May 11, 5:10am EDT

Sat May 11, 4:10am EDT

Sat May 11, 3:10am EDT

Sat May 11, 2:10am EDT

Sat May 11, 1:10am EDT

Sat May 11, 12:10am EDT